Cloud_Cover
5 5 5 5 11 100 100 5 4 82 27 36 88 100 100 100 100 100 5 8 20 36 6 97 95 100 100 100 100 100 100 100
7 12 7 37 6 1 100 5 5 33 16 10 41 5 70 34 19 5 5 5 49 8 52 64 88 100 100 100 100 100 100 100
5 5 13 99 98 33 53 94 5 4 5 4 0 1 44 40 6 9 24 85 27 41 23 37 98 99 100 100 100 100 100 100
4 2 4 5 2 62 9 4 0 0 0 0 3 8 44 6 6 10 90 100 100 100 98 74 98 100 100 100 100 100 100 100
0 5 0 0 0 8 61 7 22 11 2 0 5 64 94 4 5 3 2 60 100 100 100 100 100 100 100 100 100 100 100 100
0 0 0 0 0 4 17 98 90 29 4 1 2 5 7 48 20 80 99 36 99 100 100 100 52 74 40 76 100 100 100 72
0 0 0 0 0 0 0 59 100 97 76 27 92 24 5 8 14 39 26 83 100 95 100 49 40 96 100 100 100 100 100 61
5 7 3 0 0 0 4 43 100 100 100 83 51 8 6 34 100 100 100 100 100 100 46 48 69 100 100 100 100 100 63 37
35 12 31 59 74 5 5 5 1 23 51 61 61 100 100 100 100 100 100 97 100 100 90 100 100 100 100 100 100 86 98 68
62 100 96 98 100 100 8 5 5 35 85 100 100 100 100 100 100 100 100 62 95 100 100 100 100 100 100 100 100 93 24 6
5 22 5 5 10 74 99 100 100 100 41 34 43 100 100 100 100 100 41 68 100 94 100 95 100 100 100 88 81 48 64 100
58 5 3 5 63 49 53 29 56 29 53 5 6 88 94 100 84 42 62 93 87 100 98 100 100 100 100 98 100 93 100 100
5 27 5 5 49 100 100 100 100 100 100 34 100 98 100 100 100 100 100 100 100 100 99 97 100 100 100 100 100 100 91 100
14 8 5 5 38 55 100 100 100 100 100 100 100 100 100 100 100 100 100 100 100 100 100 100 100 100 100 100 100 100 93 86
100 90 25 7 6 93 100 100 100 100 100 100 100 100 100 100 100 100 100 100 100 100 100 100 100 100 100 100 100 86 97 75
100 100 100 59 84 87 100 100 100 100 100 100 100 100 100 100 100 100 100 100 100 100 100 100 100 100 100 100 100 84 70 100
100 100 100 100 100 100 100 100 100 100 100 100 100 100 100 100 100 100 100 100 100 100 100 100 100 100 100 100 100 100 100 100
100 100 100 100 100 100 100 100 100 100 100 100 100 100 100 100 100 100 100 100 100 100 100 100 100 100 100 100 100 100 100 100
100 100 100 100 100 100 100 100 100 100 100 100 100 100 100 100 100 100 100 100 100 100 100 100 100 100 100 100 100 100 100 100